KLM57B EDDH-EHAM

Flight info

Callsign KLM57B
Flight time 0h 44m
Altitude 30000
Route WSN5C/05 WSN N125 BLUFA
Aircraft A321/M-SDE3FGHIRWY/LB1

Departure

Time 2026-05-06 13:37
Airport Hamburg Helmut Schmidt Airport (EDDH)

Arrival

Time 2026-05-06 14:21
Airport Amsterdam Airport Schiphol (EHAM)
Time Latitude Longitude Altitude Speed Heading
2026-05-06 13:09 53.62807 10.00239 45 ft 0 kts 62°
2026-05-06 13:22 53.62804 10.00231 46 ft 2 kts 62°
2026-05-06 13:22 53.62796 10.00202 42 ft 3 kts 65°
2026-05-06 13:23 53.62787 10.00171 43 ft 3 kts 63°
2026-05-06 13:23 53.62777 10.00144 45 ft 3 kts 33°
2026-05-06 13:23 53.62769 10.00136 42 ft 1 kts 334°
2026-05-06 13:23 53.62768 10.00138 46 ft 0 kts 333°
2026-05-06 13:27 53.62769 10.00137 41 ft 1 kts 333°
2026-05-06 13:27 53.62783 10.00125 44 ft 0 kts 333°
2026-05-06 13:28 53.62807 10.00103 46 ft 7 kts 333°
2026-05-06 13:28 53.62833 10.00050 46 ft 5 kts 281°
2026-05-06 13:28 53.62823 9.99998 44 ft 4 kts 238°
2026-05-06 13:28 53.62815 9.99983 46 ft 0 kts 226°
2026-05-06 13:29 53.62785 9.99943 48 ft 9 kts 214°
2026-05-06 13:29 53.62739 9.99895 48 ft 7 kts 210°
2026-05-06 13:30 53.62694 9.99851 48 ft 7 kts 210°
2026-05-06 13:30 53.62643 9.99768 47 ft 16 kts 245°
2026-05-06 13:30 53.62615 9.99548 46 ft 20 kts 259°
2026-05-06 13:30 53.62590 9.99324 45 ft 20 kts 259°
2026-05-06 13:31 53.62564 9.99092 44 ft 20 kts 259°
2026-05-06 13:31 53.62538 9.98858 44 ft 20 kts 259°
2026-05-06 13:31 53.62511 9.98627 43 ft 20 kts 259°
2026-05-06 13:31 53.62486 9.98400 42 ft 20 kts 259°
2026-05-06 13:32 53.62460 9.98182 42 ft 17 kts 257°
2026-05-06 13:32 53.62438 9.98006 41 ft 11 kts 258°
2026-05-06 13:32 53.62429 9.97880 41 ft 11 kts 277°
2026-05-06 13:32 53.62468 9.97783 41 ft 10 kts 316°
2026-05-06 13:33 53.62511 9.97768 41 ft 0 kts 47°
2026-05-06 13:36 53.62518 9.97780 39 ft 7 kts 47°
2026-05-06 13:36 53.62721 9.98182 45 ft 82 kts 50°
2026-05-06 13:36 53.63223 9.99198 49 ft 139 kts 50°
2026-05-06 13:36 53.63876 10.00521 581 ft 147 kts 51°
2026-05-06 13:37 53.64526 10.01845 1330 ft 146 kts 50°
2026-05-06 13:37 53.65179 10.03176 1949 ft 151 kts 51°
2026-05-06 13:37 53.65890 10.04624 2272 ft 171 kts 51°
2026-05-06 13:37 53.66699 10.06272 2573 ft 190 kts 51°
2026-05-06 13:38 53.67560 10.08027 3156 ft 196 kts 51°
2026-05-06 13:38 53.68437 10.09772 3904 ft 200 kts 47°
2026-05-06 13:38 53.69686 10.10887 4552 ft 214 kts 13°
2026-05-06 13:38 53.71191 10.10459 5124 ft 235 kts 335°
2026-05-06 13:39 53.72438 10.08366 5485 ft 268 kts 306°
2026-05-06 13:39 53.73397 10.05555 6226 ft 282 kts 299°
2026-05-06 13:39 53.74239 10.02589 7172 ft 283 kts 295°
2026-05-06 13:39 53.74830 9.99397 8077 ft 290 kts 277°
2026-05-06 13:40 53.74755 9.95997 9040 ft 292 kts 259°
2026-05-06 13:40 53.74114 9.92716 9671 ft 296 kts 247°
2026-05-06 13:40 53.73307 9.89526 9844 ft 293 kts 247°
2026-05-06 13:40 53.72518 9.86271 9991 ft 310 kts 248°
2026-05-06 13:41 53.71705 9.82787 10423 ft 329 kts 248°
2026-05-06 13:41 53.70867 9.79135 11088 ft 337 kts 248°
2026-05-06 13:41 53.70014 9.75416 11879 ft 342 kts 247°
2026-05-06 13:41 53.69145 9.71651 12699 ft 346 kts 246°
2026-05-06 13:42 53.68262 9.67846 13522 ft 350 kts 247°
2026-05-06 13:42 53.67368 9.64018 14279 ft 353 kts 246°
2026-05-06 13:42 53.66462 9.60152 15037 ft 355 kts 246°
2026-05-06 13:42 53.65553 9.56270 15805 ft 357 kts 246°
2026-05-06 13:43 53.64633 9.52350 16558 ft 360 kts 246°
2026-05-06 13:43 53.63705 9.48413 17301 ft 363 kts 246°
2026-05-06 13:43 53.62768 9.44452 18046 ft 366 kts 246°
2026-05-06 13:43 53.61834 9.40515 18682 ft 368 kts 246°
2026-05-06 13:44 53.60876 9.36497 19314 ft 371 kts 246°
2026-05-06 13:44 53.59904 9.32437 19873 ft 376 kts 246°
2026-05-06 13:44 53.58919 9.28326 20461 ft 379 kts 246°
2026-05-06 13:44 53.57930 9.24191 21071 ft 382 kts 246°
2026-05-06 13:45 53.56932 9.20014 21673 ft 385 kts 246°
2026-05-06 13:45 53.54910 9.11579 22862 ft 391 kts 246°
2026-05-06 13:45 53.53886 9.07321 23434 ft 394 kts 246°
2026-05-06 13:46 53.52855 9.03038 23910 ft 397 kts 246°
2026-05-06 13:46 53.51813 8.98711 24379 ft 400 kts 246°
2026-05-06 13:46 53.50765 8.94368 24843 ft 403 kts 246°
2026-05-06 13:46 53.49706 8.89996 25305 ft 405 kts 246°
2026-05-06 13:47 53.48634 8.85597 25767 ft 408 kts 246°
2026-05-06 13:47 53.47552 8.81171 26219 ft 411 kts 246°
2026-05-06 13:47 53.46462 8.76716 26694 ft 414 kts 246°
2026-05-06 13:47 53.45380 8.72286 27150 ft 416 kts 246°
2026-05-06 13:48 53.44276 8.67780 27594 ft 419 kts 246°
2026-05-06 13:48 53.43163 8.63255 28029 ft 422 kts 246°
2026-05-06 13:48 53.42040 8.58690 28403 ft 426 kts 246°
2026-05-06 13:48 53.40904 8.54080 28790 ft 429 kts 246°
2026-05-06 13:49 53.39759 8.49443 29194 ft 432 kts 246°
2026-05-06 13:49 53.38603 8.44769 29610 ft 435 kts 246°
2026-05-06 13:49 53.37439 8.40075 29856 ft 438 kts 246°
2026-05-06 13:49 53.36253 8.35305 29886 ft 449 kts 246°
2026-05-06 13:50 53.33800 8.25483 29883 ft 463 kts 246°
2026-05-06 13:50 53.31310 8.15545 29881 ft 462 kts 246°
2026-05-06 13:51 53.28811 8.05636 29882 ft 463 kts 245°
2026-05-06 13:51 53.26733 7.97417 29875 ft 462 kts 246°
2026-05-06 13:52 53.24226 7.87521 29880 ft 463 kts 246°
2026-05-06 13:52 53.21704 7.77618 29884 ft 463 kts 245°
2026-05-06 13:53 53.19170 7.67742 29887 ft 463 kts 246°
2026-05-06 13:53 53.16638 7.57900 29897 ft 461 kts 245°
2026-05-06 13:54 53.14115 7.48104 29919 ft 459 kts 245°
2026-05-06 13:54 53.11648 7.38574 29889 ft 430 kts 245°
2026-05-06 13:55 53.10488 7.34107 29891 ft 413 kts 245°
2026-05-06 13:55 53.09331 7.29676 29659 ft 426 kts 245°
2026-05-06 13:55 53.08115 7.25067 29384 ft 442 kts 245°
2026-05-06 13:55 53.06869 7.20346 29088 ft 449 kts 245°
2026-05-06 13:56 53.05612 7.15573 28797 ft 452 kts 245°
2026-05-06 13:56 53.04369 7.10836 28538 ft 452 kts 244°
2026-05-06 13:56 53.03094 7.05979 28252 ft 455 kts 245°
2026-05-06 13:56 53.01838 7.01205 27993 ft 457 kts 245°
2026-05-06 13:57 53.00560 6.96372 27717 ft 457 kts 245°
2026-05-06 13:57 52.99280 6.91543 27457 ft 457 kts 245°
2026-05-06 13:57 52.97995 6.86708 27189 ft 458 kts 245°
2026-05-06 13:57 52.96707 6.81873 26923 ft 458 kts 245°
2026-05-06 13:58 52.95417 6.77042 26663 ft 458 kts 245°
2026-05-06 13:58 52.94122 6.72194 26400 ft 459 kts 245°
2026-05-06 13:58 52.92823 6.67344 26136 ft 459 kts 245°
2026-05-06 13:58 52.91527 6.62525 25890 ft 459 kts 245°
2026-05-06 13:59 52.90223 6.57688 25650 ft 460 kts 244°
2026-05-06 13:59 52.88921 6.52862 25376 ft 458 kts 245°
2026-05-06 13:59 52.87625 6.48057 25126 ft 457 kts 245°
2026-05-06 13:59 52.86324 6.43254 24884 ft 458 kts 245°
2026-05-06 14:00 52.85020 6.38461 24639 ft 458 kts 245°
2026-05-06 14:00 52.83647 6.33716 24393 ft 457 kts 240°
2026-05-06 14:00 52.81932 6.29271 24155 ft 460 kts 235°
2026-05-06 14:00 52.80105 6.24920 23920 ft 459 kts 235°
2026-05-06 14:01 52.78288 6.20605 23687 ft 458 kts 235°
2026-05-06 14:01 52.76469 6.16296 23446 ft 457 kts 235°
2026-05-06 14:01 52.74654 6.12004 23173 ft 455 kts 235°
2026-05-06 14:01 52.72845 6.07732 22894 ft 453 kts 235°
2026-05-06 14:02 52.71039 6.03472 22618 ft 452 kts 235°
2026-05-06 14:02 52.69270 5.99301 21939 ft 448 kts 235°
2026-05-06 14:02 52.67496 5.95120 21086 ft 442 kts 235°
2026-05-06 14:02 52.65744 5.90999 20277 ft 436 kts 235°
2026-05-06 14:03 52.64010 5.86935 19448 ft 431 kts 235°
2026-05-06 14:03 52.62296 5.82930 18679 ft 427 kts 235°
2026-05-06 14:03 52.60589 5.78942 17878 ft 424 kts 235°
2026-05-06 14:03 52.58903 5.75002 17105 ft 418 kts 236°
2026-05-06 14:04 52.57238 5.71121 16386 ft 412 kts 236°
2026-05-06 14:04 52.55597 5.67298 15691 ft 407 kts 236°
2026-05-06 14:04 52.53975 5.63529 15025 ft 401 kts 236°
2026-05-06 14:04 52.52371 5.59810 14385 ft 396 kts 236°
2026-05-06 14:05 52.50797 5.56131 13767 ft 391 kts 237°
2026-05-06 14:05 52.49308 5.52345 13448 ft 401 kts 239°
2026-05-06 14:05 52.47860 5.48417 13081 ft 403 kts 241°
2026-05-06 14:05 52.46446 5.44464 12748 ft 400 kts 240°
2026-05-06 14:06 52.45040 5.40516 12401 ft 399 kts 241°
2026-05-06 14:06 52.43637 5.36611 12056 ft 397 kts 240°
2026-05-06 14:06 52.42221 5.32725 11705 ft 397 kts 240°
2026-05-06 14:06 52.40800 5.28865 11368 ft 392 kts 240°
2026-05-06 14:07 52.39415 5.25138 11179 ft 374 kts 240°
2026-05-06 14:07 52.38092 5.21598 11062 ft 356 kts 239°
2026-05-06 14:07 52.36827 5.18217 10884 ft 342 kts 240°
2026-05-06 14:07 52.35620 5.14987 10639 ft 331 kts 240°
2026-05-06 14:08 52.34453 5.11760 10387 ft 321 kts 244°
2026-05-06 14:08 52.33698 5.08394 10144 ft 312 kts 258°
2026-05-06 14:08 52.33437 5.04888 9889 ft 310 kts 270°
2026-05-06 14:08 52.33431 5.01452 9873 ft 294 kts 271°
2026-05-06 14:09 52.33413 4.98140 9890 ft 290 kts 270°
2026-05-06 14:09 52.33387 4.94855 9900 ft 289 kts 270°
2026-05-06 14:09 52.33359 4.91615 9843 ft 289 kts 272°
2026-05-06 14:09 52.33331 4.88344 9484 ft 287 kts 270°
2026-05-06 14:10 52.33300 4.85093 9196 ft 285 kts 271°
2026-05-06 14:10 52.33272 4.81848 8910 ft 285 kts 271°
2026-05-06 14:10 52.33245 4.78599 8626 ft 285 kts 270°
2026-05-06 14:10 52.33216 4.75368 8342 ft 284 kts 271°
2026-05-06 14:11 52.33187 4.72139 8060 ft 283 kts 270°
2026-05-06 14:11 52.33156 4.68931 7778 ft 283 kts 271°
2026-05-06 14:11 52.33126 4.65721 7491 ft 282 kts 271°
2026-05-06 14:11 52.33097 4.62506 7201 ft 283 kts 270°
2026-05-06 14:12 52.33065 4.59308 6901 ft 282 kts 271°
2026-05-06 14:12 52.33030 4.56111 6612 ft 280 kts 271°
2026-05-06 14:12 52.32993 4.52984 6482 ft 269 kts 271°
2026-05-06 14:12 52.32955 4.49993 6362 ft 258 kts 270°
2026-05-06 14:13 52.32920 4.47116 5999 ft 250 kts 270°
2026-05-06 14:13 52.32888 4.44311 5559 ft 245 kts 270°
2026-05-06 14:13 52.32586 4.41573 5279 ft 246 kts 248°
2026-05-06 14:13 52.31678 4.39254 4987 ft 247 kts 224°
2026-05-06 14:14 52.30254 4.37637 4729 ft 247 kts 201°
2026-05-06 14:14 52.28627 4.37064 4438 ft 242 kts 177°
2026-05-06 14:14 52.26945 4.36997 4362 ft 242 kts 180°
2026-05-06 14:14 52.25262 4.37104 4219 ft 237 kts 163°
2026-05-06 14:15 52.23808 4.38153 4146 ft 229 kts 140°
2026-05-06 14:15 52.22725 4.40002 3882 ft 223 kts 118°
2026-05-06 14:15 52.22093 4.42266 3663 ft 219 kts 110°
2026-05-06 14:15 52.21465 4.44536 3482 ft 220 kts 111°
2026-05-06 14:16 52.20936 4.46858 3221 ft 217 kts 97°
2026-05-06 14:16 52.20892 4.49293 3033 ft 214 kts 87°
2026-05-06 14:16 52.20888 4.51714 2929 ft 212 kts 84°
2026-05-06 14:16 52.21279 4.53993 2783 ft 208 kts 59°
2026-05-06 14:17 52.22033 4.55938 2523 ft 200 kts 56°
2026-05-06 14:17 52.22783 4.57844 2243 ft 197 kts 57°
2026-05-06 14:17 52.23476 4.59628 2030 ft 175 kts 56°
2026-05-06 14:17 52.24083 4.61197 1840 ft 150 kts 56°
2026-05-06 14:18 52.24606 4.62549 1557 ft 134 kts 55°
2026-05-06 14:18 52.25083 4.63780 1399 ft 127 kts 55°
2026-05-06 14:18 52.25551 4.64999 1211 ft 125 kts 54°
2026-05-06 14:18 52.26020 4.66197 1075 ft 124 kts 54°
2026-05-06 14:19 52.26481 4.67398 895 ft 124 kts 54°
2026-05-06 14:19 52.26944 4.68604 736 ft 126 kts 55°
2026-05-06 14:19 52.27406 4.69802 580 ft 125 kts 55°
2026-05-06 14:19 52.27874 4.71012 418 ft 125 kts 56°
2026-05-06 14:20 52.28336 4.72215 262 ft 126 kts 57°
2026-05-06 14:20 52.28801 4.73429 99 ft 126 kts 58°
2026-05-06 14:20 52.29247 4.74593 2 ft 111 kts 58°
2026-05-06 14:20 52.29582 4.75472 -2 ft 53 kts 58°
2026-05-06 14:21 52.29719 4.75751 -2 ft 25 kts 41°
2026-05-06 14:21 52.29856 4.75864 -1 ft 21 kts 28°
2026-05-06 14:21 52.29980 4.75976 -1 ft 19 kts 34°
2026-05-06 14:21 52.30050 4.76138 -1 ft 18 kts 56°
2026-05-06 14:22 52.30115 4.76308 -1 ft 18 kts 58°
2026-05-06 14:22 52.30185 4.76491 -1 ft 19 kts 58°
2026-05-06 14:22 52.30258 4.76685 -1 ft 21 kts 58°
2026-05-06 14:22 52.30336 4.76888 -1 ft 22 kts 58°
2026-05-06 14:23 52.30416 4.77037 -1 ft 15 kts
2026-05-06 14:23 52.30504 4.76970 -1 ft 14 kts 326°
2026-05-06 14:23 52.30587 4.76885 -1 ft 14 kts 329°
2026-05-06 14:23 52.30655 4.76924 -1 ft 12 kts 80°
2026-05-06 14:24 52.30652 4.77051 -1 ft 9 kts 93°
2026-05-06 14:24 52.30689 4.77085 -1 ft 5 kts
2026-05-06 14:24 52.30706 4.77088 -1 ft 2 kts